Regional Weather Roundup
Issued by NWS Glasgow, MT

Home | Current Version | Previous Version | Text Only | Print | Product List | Glossary On
Versions: 1 2 3 4 5 6 7 8 9 10 11 12 13 14 15 16 17 18 19 20 21 22 23 24 25 26 27
000
ASUS45 KGGW 260415
RWRGGW
HOURLY REGIONAL WEATHER ROUNDUP FOR NORTHEAST MONTANA
NATIONAL WEATHER SERVICE GLASGOW MONTANA
1000 PM MDT MON JUL 25 2016

NOTE: "FAIR" INDICATES FEW OR NO CLOUDS BELOW 12,000 FEET WITH NO
SIGNIFICANT WEATHER AND/OR OBSTRUCTIONS TO VISISBILITY.

NORTHEAST MONTANA


CITY           SKY/WX    TMP DP  RH WIND       PRES   REMARKS
GLASGOW        CLEAR     74  59  59 NE14      29.99R
PLENTYWOOD       N/A     72  60  66 NE6         N/A
WOLF POINT     CLEAR     74  55  51 NE10      29.98R
JORDAN           N/A     75  49  39 NE9       29.99R
WINNETT          N/A     74  48  39 SW6         N/A
SIDNEY         CLEAR     74  58  57 NE6       29.98R
GLENDIVE       CLEAR     78  54  43 NE10      29.99R
MALTA            N/A     75  60  59 NE8G18      N/A
SCOBEY           N/A     70  55  59 N6        30.03R
OPHEIM           N/A     64  59  82 N7        29.77

FORT PECK REPORTS


CITY           SKY/WX    TMP DP  RH WIND       PRES   REMARKS
FORT PECK        N/A     79  53  40 NE10        N/A

SOUTHEAST MONTANA


CITY           SKY/WX    TMP DP  RH WIND       PRES   REMARKS
BILLINGS       CLOUDY    81  47  30 N21G41    30.00F THUNDER
MILES CITY     CLEAR     84  47  27 NE15      29.95R
BAKER          CLEAR     77  55  46 E12       30.00R
LIVINGSTON     CLOUDY    74  47  38 E7        30.14R

CENTRAL MONTANA


CITY           SKY/WX    TMP DP  RH WIND       PRES   REMARKS
HAVRE          CLEAR     76  59  55 NE13      30.01R
LEWISTOWN      MOCLDY    72  53  51 CALM      30.10R
GREAT FALLS    PTCLDY    75  45  34 SW18G25   30.09R
CUT BANK         N/A     70  50  49 NE7       30.10R
HELENA         CLOUDY    70  53  54 W8        30.08R
BUTTE          CLOUDY    67  49  52 S5        30.19R
BOZEMAN        CLOUDY    78  40  25 NE13      30.11R

WESTERN MONTANA


CITY           SKY/WX    TMP DP  RH WIND       PRES   REMARKS
MISSOULA       CLEAR     76  45  33 NW6       30.02R
KALISPELL      NOT AVBL

NORTH DAKOTA


CITY           SKY/WX    TMP DP  RH WIND       PRES   REMARKS
WILLISTON      CLEAR     77  59  53 E7        29.99R
DICKINSON      CLOUDY    69  58  67 NE8       29.99R
MINOT          CLEAR     74  66  76 NE3       29.97R
BISMARCK       CLEAR     81  67  62 NE12      29.94R

SOUTHERN SASKATCHEWAN


CITY           SKY/WX    TMP DP  RH WIND       PRES   REMARKS
REGINA         PTCLDY    64  57  77 NE3       30.04R
ESTEVAN        PTCLDY    70  64  83 VRB2      29.99R
SWIFT CURRENT  CLEAR     64  55  72 E8        30.08R





USA.gov is the U.S. government's official web portal to all federal, state and local government web resources and services.